735  
ASUS46 KLOX 190913  
RWRCA  
 
SOUTHERN CALIFORNIA WEATHER ROUNDUP  
NATIONAL WEATHER SERVICE OXNARD CALIFORNIA  
200 AM PDT WED JUN 19 2019  
 
NOTE: "FAIR" INDICATES FEW OR NO CLOUDS BELOW 12,000 FEET WITH NO  
SIGNIFICANT WEATHER AND/OR S TO VISIBILITY
.  
 
- STATIONS PRECEEDED BY AN ASTERISK (*) ARE NOT NWS OR FAA  
STATIONS AND ARE NOT SUBJECT TO NWS AND FAA QUALITY CONTROL.
 
 
CAZ041-042-087-191000-  
LA AND ORANGE COUNTY COASTAL AREAS  
 
 
CITY SKY/WX TMP DP RH WIND PRES REMARKS
 
L.A. DOWNTOWN CLOUDY 65 58 78 W3 29.97F  
L.A. AIRPORT CLOUDY 65 58 78 W6 29.97F  
LONG BEACH CLOUDY 66 57 72 CALM 29.97F  
 
CITY SKY/WX TMP DP RH WIND PRES REMARKS
 
AVALON N/A 63 N/A N/A MISG N/A  
FULLERTON CLOUDY 65 57 75 SE3 29.96F  
*GETTY CENTER N/A 55 55 100 CALM N/A  
HAWTHORNE CLOUDY 65 57 75 CALM 29.97F  
*LEO CARRILLO N/A 62 60 92 W5 N/A  
*LOS ALAMITOS CLOUDY 64 58 81 S3 29.97F  
*REDONDO BEACH N/A 63 58 83 CALM 29.97F  
SANTA ANA CLOUDY 64 57 78 CALM 29.97F  
STA MONICA APT CLOUDY 64 59 83 CALM 29.97F  
*UCLA N/A 61 55 82 N1 29.94F  
 

 
 
CAZ547-548-048-191000-  
LA COUNTY VALLEYS AND INLAND EMPIRE  
 
 
CITY SKY/WX TMP DP RH WIND PRES REMARKS
 
BURBANK CLOUDY 63 58 83 CALM 29.97F  
VAN NUYS CLOUDY 62 58 86 S3 29.97F  
 
CITY SKY/WX TMP DP RH WIND PRES REMARKS
 
CORONA AIRPORT SUNNY 59 57 93 MISG 29.98F  
*CHATSWORTH N/A 63 58 84 N1 29.94F  
CHINO CLEAR 60 58 92 CALM 29.98F  
*CLAREMONT N/A 56 54 94 CALM N/A  
MARCH AFB CLEAR 57 57 100 W3 29.98F  
*NORTHRIDGE N/A 63 55 77 S1 N/A  
ONTARIO PTCLDY 65 61 87 SW5 29.97F  
*PASADENA N/A 64 61 88 CALM N/A  
RIVERSIDE CLEAR 61 56 83 CALM 29.98F  
SAN BERNARDINO FAIR 63 55 76 W3 29.98  
*SAN RAFAEL HI N/A 58 58 99 CALM N/A  
*SAUGUS N/A 58 57 97 CALM N/A  
*WHITEMAN AP NOT AVBL  
*WHITTIER HILL N/A 60 59 96 CALM N/A  
*WOODLAND HILL N/A 63 57 82 S1 N/A  
 

 
 
CAZ054-055-191000-  
LA AND SAN BERNARDINO COUNTY MOUNTAINS  
 
 
CITY SKY/WX TMP DP RH WIND PRES REMARKS
 
*ACTON N/A 57 53 88 CALM N/A  
*BIG BEAR AIRP SUNNY 46 36 66 CALM 30.23S  
*BIG PINES N/A 60 37 42 CALM N/A  
*CHILAO N/A 66 43 42 CALM N/A  
SANDBERG CLEAR N/A N/A N/A NW14G23 30.10S  
*WARM SPRINGS N/A 60 53 78 SW9 N/A  
 

 
 
CAZ028-029-059-060-099-191000-  
ANTELOPE VALLEY AND SURROUNDING AREAS  
 
 
CITY SKY/WX TMP DP RH WIND PRES REMARKS
 
LANCASTER CLEAR 75 53 46 W14 29.93F  
PALMDALE CLEAR 73 52 47 S12 29.96S  
*POPPY PARK N/A 70 54 57 SW10 N/A  
 
CITY SKY/WX TMP DP RH WIND PRES REMARKS
 
29 PALMS CLEAR 79 46 31 N5 29.95F  
BARSTOW/DAGGET CLEAR 82 47 29 W10 29.89S  
BISHOP PTCLDY 61 37 41 NW6 30.05S  
CHINA LAKE CLEAR 76 45 33 SW6 29.87F  
EDWARDS AFB CLEAR 74 51 44 SW15 29.90F  
MOJAVE CLEAR 81 52 36 NW30 29.92F  
NEEDLES CLEAR 89 28 11 SW5 29.81F  
 

 
 
CAZ039-040-191000-  
VENTURA AND SANTA BARBARA COUNTY COAST  
 
 
CITY SKY/WX TMP DP RH WIND PRES REMARKS
 
CAMARILLO CLOUDY 63 58 83 NW3 29.96F  
NWS OXNARD N/A 62 57 83 SW3 29.95F  
OXNARD AIRPORT CLOUDY 62 58 86 NW6 29.97F  
*POINT MUGU CLOUDY 62 60 93 W6 29.97F  
SBA APT/GOLETA CLOUDY 60 57 89 W3 29.97F  
*SANTA BARBARA N/A 62 55 78 CALM 30.04F  
*VENTURA N/A 59 57 94 MISG N/A  
 

 
 
CAZ044-045-191000-  
VENTURA COUNTY VALLEYS  
 
 
CITY SKY/WX TMP DP RH WIND PRES REMARKS
 
*SIMI VALLEY N/A 61 58 90 CALM 29.91F  
*THOUSAND OAKS N/A 60 58 92 W1 29.98F  
*WESTLAKE VILL N/A 60 56 85 CALM 29.93F  
*OJAI N/A 62 58 87 CALM 29.90F  
*FILLMORE N/A 63 58 84 SW3 30.00F  
 

 
 
CAZ053-191000-  
VENTURA COUNTY MOUNTAINS  
 
 
CITY SKY/WX TMP DP RH WIND PRES REMARKS
 
*LOCKWOOD VLY N/A 54 46 76 W3 N/A  
*FRAZIER MTN N/A 57 43 57 N9 29.88F  
*ROSE VALLEY N/A 54 52 94 MISG N/A  
 

 
 
CAZ034-035-036-191000-  
CENTRAL COAST AND SANTA YNEZ VALLEY  
 
 
CITY SKY/WX TMP DP RH WIND PRES REMARKS
 
SAN LUIS OBISP CLOUDY 58 55 90 CALM 29.98S  
SANTA MARIA CLOUDY 60 57 89 CALM 29.98F  
 
CITY SKY/WX TMP DP RH WIND PRES REMARKS
 
*CAL POLY SLO N/A 59 59 100 NE2 N/A  
*LOMPOC CLOUDY 60 55 83 W3 29.98F  
*PISMO BEACH N/A 58 51 78 W2 29.97F  
*SANTA YNEZ FAIR 55 52 88 CALM 29.98F  
 

 
 
CAZ037-038-051-191000-  
SAN LUIS OBISPO COUNTY INTERIOR AND CUYAMA VALLEY  
 
 
CITY SKY/WX TMP DP RH WIND PRES REMARKS
 
*CUYAMA N/A 64 55 71 CALM 29.84S  
PASO ROBLES CLEAR 58 55 90 CALM 29.95F  
 

 
 
CAZ032-033-061-191000-  
SOUTHERN DESERTS  
 
 
CITY SKY/WX TMP DP RH WIND PRES REMARKS
 
BLYTHE CLEAR 82 45 27 S14 29.81S  
IMPERIAL CLEAR 78 66 66 SE10 29.78F  
PALM SPRINGS CLEAR 79 56 45 SW3 29.83F  
THERMAL CLEAR 81 55 40 E7 29.78R  
 

 
 
ELSEWHERE ACROSS THE WESTERN UNITED STATES AND MEXICO  
 
 
CITY SKY/WX TMP DP RH WIND PRES REMARKS
 
DEATH VALLEY, N/A 97 40 13 E5 N/A HX 93  
DENVER, CO MOCLDY 54 49 83 SW9 29.97F  
GRAND CANYON, CLEAR 44 35 70 CALM 30.22F  
HONOLULU, HI PTCLDY 81 68 65 NE13 30.03  
KAHULUI, MAUI PTCLDY 81 68 65 NE13 30.02R  
LAKE TAHOE, CA CLEAR 52 44 74 S5 30.23F  
LAS VEGAS, NV CLEAR 86 32 14 S7 29.85F  
MAMMOTH LAKES, FAIR 51 34 51 W10 30.30F  
MEXICO CITY, M MOCLDY 61 55 82 SE6 30.34F  
PHOENIX, AZ CLEAR 85 24 11 N5 29.85S  
PORTLAND, OR MOCLDY 55 45 68 CALM 30.25F  
RENO, NV CLEAR 70 44 39 NW7 30.11S  
SALT LAKE CITY MOCLDY 68 48 48 S5 30.00S  
SAN DIEGO, CA PTCLDY 63 56 78 CALM 29.98F  
SAN FRANCISCO, MOCLDY 58 54 86 CALM 29.92S  
SAN JOSE, CA CLEAR 60 57 89 S10 29.92S  
SEATTLE, WA CLOUDY 55 46 71 S8 30.20S  
TIJUANA, MEX PTCLDY 57 55 94 CALM 30.01F  
 

 
 
STATION/POSITION TIME TEMP WIND PRES VSBY WAVE
 
AIR SEA DIR/SP/G HT/PER  
(UTC) (F) (DEG/KT/KT) (MB) (MI) (FT/S)  
WEST SANTA BARBA 0900 1014.6F  
EAST SANTA BARBA 0850 60 62 310/ 6/ 8 1015.3F 3/11  
SANTA MONICA BAY 0900 62 64 330/ 6/ 8 1015.1  
SAN CLEMENTE BAS 0900 62 64 270/ 4/ 6 1015.1  
 
CLICK HERE TO GO TO PREVIOUS BULLETINS.

The Nexlab CA Page Main Text Page